Showing default

GJZ 02, 62291

Orbit data source: Space-Track

GJZ 02, 62291 is a payload satellite owned by CASC (CN) in LEO that was launched on Thu, 12 Dec 2024 UTC via a CHANG ZHENG 2D/YZ-3 launch vehicle from the Jiuquan Satellite Launch Center, China (JSC). Payloads include a variety of satellites, spacecraft, and rockets equipped with specific instruments for various scientific and technological missions. These include communications satellites like Starlink; space stations such as the ISS; scientific satellites like the Hubble; Earth observation satellites from companies like Planet Labs, Umbra, and HawkEye 360; GPS; miniature CubeSats for education and research; and military/defense satellites.

Loading next visibility...
GJZ 02 details
Identifier
62291, 2024-238B
Orbit
LEO
Last TLE update9 hours ago
Origin
Flag of CNCASC (CN / PRC)
ManufacturerHITSAT
MissionOperational spacecraft
Bus & MotorHARBFLAT, Unknown motor
Mass~150 kg wet, ~150 kg dry
Launch date (UTC)
2024-12-12 (2 weeks ago)
Launch vehicle
CHANG ZHENG 2D/YZ-3
Launch site
Jiuquan Satellite Launch Center, China (JSC)
Object type
Payload
Rocket body
Debris
Shape & HBRUnknown
Radar Cross SectionLarge (>1 m²)

Expand to show TLE details & history

TLE from 9 hours ago
0 GJZ 02
1 62291U 24238B   24361.07953912  .00001088  00000-0  49914-3 0  9998
2 62291  59.9147  95.8880 0016729 322.5477  37.4389 14.27164925  1950
Epoch: 2024-12-26T01:54Z
Definitive object data (Epoch: 2024-12-26T01:54:32.179Z)
Latitude-0.00006°
Longitude-27.8102°
Altitude793.216 km
Speed7.463 km/s
True Right ascension06h 23m 33s
True Declination0° 00' 00"
Sunlit
Object was in full shadow at TLE epoch
Visualization TLE readout
Latitude3.86882°
Longitude148.68783°
Altitude812.438 km
Speed7.443 km/s
Apparent Right ascension19h 52m 07s
Apparent Declination-19° 17' 01"
Sunlit
Object is in daylight
Visualization observer readout
Local Sidereal Time10:29:26
Azimuth70.218° E
Elevation-50.522°
Doppler factor1
Orbital elements
Apogee altitude812.482 km
Perigee altitude788.463 km
Semi-major axis7,178.61 km
Eccentricity0.0016729
Inclination59.9147°
RAAN95.888°
Arg. of periapsis322.5477°
True anomaly37.55563°
Mean anomaly37.4389°
Eccentric anomaly37.49725°
Mean motion3.56848 °/min
BSTAR0.00049914
Orbital period100.88 mins
Loading maneuver chart data...
Loading historical data...
Loading historical data...
Loading historical data...
Loading historical data...
Loading historical data...
Loading historical data...
Loading historical data...
Other satellites on launch #238 in the year 2024 (2024-12-12 UTC)

GJZ 02 Visibility forecast

Observer location: undefined°, undefined

Span
Click to sort rows by Start time (UTC) header in descending order
Start Az.
Max El. time (UTC)
Max El. Az.
Max El.
End time (UTC)
End Az.
8 mins2024-12-26 15:53:09.002Z347.058° N2024-12-26 15:56:09.002Z36.764° NE30.184°2024-12-26 16:01:09.002Z105.75° ESE
8 mins2024-12-26 17:37:09.002Z300.904° NW2024-12-26 17:41:09.002Z230.44° WSW33.729°2024-12-26 17:45:09.002Z173.175° S
9 mins2024-12-27 08:19:09.002Z207.168° SW2024-12-27 08:23:09.002Z140.913° SSE43.377°2024-12-27 08:28:09.002Z43.867° NE
7 mins2024-12-27 10:05:09.002Z281.476° WNW2024-12-27 10:08:09.002Z322.931° NNW22.419°2024-12-27 10:12:09.002Z15.212° NNE
|